SCP
0 0 0 0 0 -0 -0 0 0 -0 -0 -0 -0 0 0 -0 0 0 0 0 1 0 1 1 1 1 1 1 0 0 0 0 0 0 0 0 0 0 0 0 0 0 0 0
-0 -0 -0 -0 -0 -0 0 -0 0 -0 -0 -0 -0 0 0 0 0 0 0 0 1 1 1 1 1 1 0 0 0 0 0 0 0 0 0 0 0 0 0 0 0 0 0 0
0 0 -0 0 -0 -0 0 -0 -0 -0 -0 0 0 0 0 0 0 0 0 0 1 1 2 2 1 0 0 0 0 0 0 0 0 0 0 0 0 0 0 0 0 0 0 0
0 0 0 0 0 -0 -0 -0 -0 -0 -0 0 0 0 0 0 0 0 0 0 2 2 2 1 0 0 0 0 0 0 0 0 0 0 0 0 0 0 0 0 0 0 0 0
0 0 -0 0 0 -0 -0 -0 0 -0 0 0 -0 0 0 0 0 0 1 2 1 1 0 0 0 0 0 0 0 0 0 0 0 0 0 0 0 0 0 0 0 0 0 0
0 0 0 0 -0 0 0 0 0 0 0 0 0 -0 0 0 0 0 1 0 0 0 0 0 0 0 0 0 0 0 0 0 0 0 0 0 0 0 0 0 0 0 0 0
0 0 0 0 -0 -0 0 0 0 0 0 0 0 0 0 0 0 0 0 0 0 0 0 0 0 0 0 0 0 0 0 0 0 0 0 0 0 0 0 0 0 0 0 0
0 0 0 0 0 0 0 0 -0 -0 -0 0 0 0 0 0 0 0 0 0 0 0 0 0 0 0 0 0 0 0 0 0 0 0 0 0 0 0 0 0 0 0 0 0
0 0 0 0 0 0 0 0 0 0 0 -0 0 0 0 0 0 0 0 0 0 0 0 0 0 0 0 0 0 0 0 0 0 0 0 0 0 0 0 0 0 0 0 0
0 0 0 0 0 0 0 0 0 0 0 0 0 0 0 0 0 0 0 0 0 0 0 0 0 0 0 0 0 0 0 0 0 0 0 0 0 0 0 0 0 0 0 0
0 0 0 0 0 0 0 0 0 0 0 0 0 0 0 0 0 0 0 0 0 0 0 0 0 0 0 0 0 0 0 0 0 0 0 0 0 0 0 0 0 0 0 0
0 0 0 0 0 0 0 0 0 0 0 0 0 0 0 0 0 0 0 0 0 0 0 0 0 0 0 0 0 0 0 0 0 0 0 0 0 0 0 0 0 0 0 0
0 0 0 0 0 0 0 0 0 0 0 0 0 0 0 0 0 0 0 0 0 0 0 0 0 0 0 0 0 -0 0 0 0 0 0 0 0 0 0 0 0 0 0 0
0 0 0 0 0 0 0 0 0 0 0 0 0 0 0 0 0 0 0 0 0 0 0 0 0 0 0 -0 -0 -0 -0 -0 0 0 0 0 0 0 0 0 0 0 0 0
0 0 0 0 0 0 0 0 0 0 0 0 0 0 0 0 0 0 0 0 0 0 0 0 0 -0 0 -0 -0 -0 0 0 0 0 0 0 0 0 0 0 0 0 0 0
-0 0 0 0 0 0 0 0 0 0 0 0 0 0 0 0 0 0 0 0 0 0 0 0 -0 0 -0 -0 -0 -0 -0 -0 -0 0 0 0 0 0 0 0 0 0 0 0
0 0 0 0 0 0 0 0 0 0 0 0 0 0 0 0 0 0 0 0 0 0 0 -0 -0 -0 -0 -0 -0 -0 -0 -0 0 0 0 0 0 0 0 0 0 0 0 0
0 0 0 -0 -0 -0 0 0 0 0 0 0 0 0 0 0 0 0 0 0 0 0 0 0 -0 -0 -0 -0 -0 -0 0 0 0 0 0 0 0 0 0 0 0 0 0 0
0 0 0 0 -0 -0 0 0 0 0 0 0 0 0 0 0 0 0 0 0 0 -0 0 -0 -0 -0 -0 0 -0 0 0 0 0 0 0 0 0 0 0 0 0 0 0 0
0 0 0 0 0 -0 0 0 0 0 0 0 0 0 0 0 0 0 0 -0 0 0 0 0 0 -0 -0 -0 0 0 0 0 0 0 0 0 0 0 0 0 0 0 0 0
0 0 0 0 0 0 0 0 0 0 0 0 0 0 0 0 0 0 -0 0 0 -0 -0 -0 -0 0 -0 0 0 0 0 0 0 0 0 0 0 0 0 0 0 0 0 0
0 0 0 0 0 0 0 0 0 0 -0 0 0 0 -0 -0 -0 -0 -0 0 0 0 0 -0 -0 -0 -0 0 0 0 0 0 0 0 0 0 0 0 0 0 0 0 0 0
-0 -0 -0 -0 -0 0 0 -0 -0 -0 -0 -0 0 -0 -0 -0 -0 0 0 0 -0 -0 -0 -0 0 0 0 0 0 0 0 0 0 0 0 0 0 0 0 0 0 0 0 0
-0 -0 0 -0 -0 -0 -0 -0 0 0 0 -0 -0 -0 -0 -0 0 0 0 -0 0 -0 0 0 0 0 0 0 0 0 0 0 0 0 0 0 0 0 0 0 -0 0 0 -0
-0 -0 0 0 0 0 0 0 0 0 0 0 0 -0 -0 -0 -0 -0 0 0 0 0 0 0 0 0 0 0 0 0 0 0 0 0 0 0 0 0 0 0 0 0 0 0
-0 -0 -0 -0 0 0 0 -0 0 -0 -0 0 0 -0 -0 -0 0 0 0 0 0 0 0 0 0 0 0 0 0 0 0 0 0 0 0 0 0 0 0 0 0 0 0 0
-0 0 0 0 -0 -0 -0 -0 -0 -0 -0 -0 0 0 0 0 0 0 0 0 0 0 0 0 0 0 0 0 0 0 0 0 0 0 0 0 0 0 0 0 0 0 0 0
Wind_Speed_500mb
34 46 43 39 43 46 45 43 33 50 42 40 34 30 27 29 31 23 19 16 20 39 43 44 50 59 72 81 83 79 80 72 65 63 67 67 69 64 57 51 41 34 28 20
38 44 42 39 47 42 42 46 49 51 60 44 50 57 47 51 43 40 34 20 23 43 50 58 65 78 81 85 85 83 77 74 75 80 82 80 74 69 60 51 42 32 25 18
16 18 28 19 11 9 11 32 36 45 53 32 36 29 30 40 42 50 41 23 39 50 62 74 83 84 90 95 90 76 86 86 94 92 88 82 75 65 57 47 38 30 25 22
15 18 8 9 29 28 26 29 24 38 45 39 29 37 32 27 32 35 33 28 51 61 78 89 93 92 99 97 91 94 98 100 99 92 89 81 72 62 53 42 35 30 28 26
7 13 28 10 29 28 19 41 24 31 26 25 26 10 10 17 16 23 22 55 71 80 96 100 100 96 103 101 102 105 105 104 98 92 87 77 68 57 46 38 35 32 31 29
6 9 9 20 52 70 44 8 26 32 27 20 16 13 8 16 6 28 53 78 87 99 101 99 98 105 106 106 105 105 106 100 94 84 78 70 59 50 46 37 38 36 36 34
12 8 8 36 55 64 11 16 40 45 31 31 19 2 11 12 34 52 70 92 99 105 106 105 105 109 110 108 108 108 100 92 83 74 67 58 54 48 44 41 40 41 39 40
9 8 12 55 41 19 16 35 41 42 31 17 44 25 43 57 68 74 85 93 96 107 108 106 109 114 112 112 108 101 95 88 78 69 62 56 51 51 44 41 41 42 40 41
7 8 19 52 31 37 26 34 43 45 40 59 67 76 69 80 80 74 79 92 101 119 114 104 104 107 119 111 103 99 91 83 74 67 61 53 47 47 46 41 41 42 38 38
11 4 25 43 48 43 49 52 58 65 59 80 81 83 78 89 78 69 85 89 108 113 112 113 111 112 112 104 96 89 85 79 73 69 63 54 50 46 46 44 43 41 37 33
8 10 23 50 52 48 53 60 68 75 71 79 89 80 88 93 82 90 91 89 111 123 123 119 113 108 99 91 83 83 80 76 71 64 59 56 54 51 47 45 37 38 34 30
7 30 22 31 46 53 59 63 68 76 80 83 98 86 103 91 93 101 100 99 115 116 115 108 103 98 88 79 73 77 78 71 67 63 57 56 57 56 48 44 42 41 38 33
9 31 22 29 45 55 69 72 80 83 82 94 91 105 110 94 101 115 110 102 109 105 100 94 89 83 73 68 64 66 72 69 63 59 57 56 54 54 57 49 43 41 38 38
15 13 32 50 34 56 71 75 85 92 94 96 98 100 100 102 104 109 102 96 94 88 87 83 81 77 68 64 64 66 67 64 62 60 56 54 50 46 42 39 37 40 34 34
31 36 40 41 49 58 68 72 81 80 79 82 83 87 87 92 94 95 92 91 90 87 85 83 82 76 67 65 67 67 66 64 61 60 55 54 50 44 40 37 34 34 32 28
27 33 39 42 47 52 61 62 71 71 75 76 79 81 83 87 87 80 74 76 82 78 76 78 77 69 64 64 67 65 61 59 59 57 53 46 43 39 35 34 31 27 24 20
23 27 30 37 45 48 54 60 63 63 63 63 63 65 69 73 74 72 69 69 72 72 69 70 70 61 58 57 59 60 61 55 54 48 42 37 37 35 31 28 26 24 23 22
26 24 28 34 41 43 40 43 47 52 53 51 53 57 61 65 68 66 63 61 63 63 58 56 56 52 52 49 51 54 53 49 47 45 45 39 36 33 27 25 23 20 20 21
21 27 27 32 36 41 41 44 47 48 47 47 52 56 57 58 58 57 56 57 56 56 52 45 43 46 46 42 44 45 45 45 43 42 39 36 33 27 24 21 20 17 15 14
23 26 31 37 39 39 41 39 40 40 41 41 50 53 53 50 49 50 49 55 54 56 51 45 43 44 42 37 37 40 39 37 36 35 31 26 24 22 20 19 17 15 13 12
19 26 31 34 37 36 34 34 33 35 35 33 41 47 49 46 43 44 50 54 51 46 42 36 34 37 34 33 33 36 34 33 31 29 26 22 20 17 15 14 12 10 10 10
21 25 31 32 32 32 27 26 26 31 33 36 39 43 44 41 36 39 43 46 44 39 37 37 37 35 35 31 31 30 30 30 30 28 24 21 17 15 12 10 8 7 7 8
23 28 31 30 29 29 26 22 23 25 27 27 29 32 32 34 32 32 38 39 38 37 35 33 32 30 28 26 26 26 26 24 23 21 19 16 13 12 11 9 8 7 8 7
24 27 26 25 24 26 29 30 31 29 28 27 26 26 28 33 32 30 37 39 36 33 28 27 23 20 22 23 25 25 23 21 20 17 15 15 13 13 14 13 14 13 10 9
24 25 23 23 22 23 29 32 31 30 30 31 31 29 27 25 24 35 36 36 33 29 24 20 17 19 20 22 22 22 22 21 19 20 21 20 20 21 20 19 18 15 12 9
24 23 22 21 22 27 30 31 26 30 30 30 29 28 27 26 26 27 29 28 27 26 22 23 24 26 26 24 22 20 23 23 24 24 25 23 21 17 15 13 12 10 9 11
25 25 29 29 28 28 28 29 30 33 30 26 24 24 22 21 24 24 25 27 26 30 32 28 27 25 23 20 19 17 22 22 22 24 24 21 18 15 11 8 5 5 8 13
Wind_Direction_500mb
260 274 279 270 267 267 259 257 250 272 279 263 268 279 287 283 281 283 271 262 218 190 180 171 167 164 173 173 176 179 176 177 179 176 173 171 168 164 161 162 160 157 158 160
281 272 264 266 266 263 252 254 253 255 262 262 268 270 266 262 261 272 275 287 201 180 171 163 163 171 171 173 170 170 172 172 167 165 165 161 158 157 157 155 153 157 155 136
278 317 305 265 299 290 257 257 255 248 254 271 259 257 260 253 252 251 261 259 191 178 166 159 167 167 166 167 164 169 168 164 162 161 158 156 154 151 148 149 150 146 128 113
292 321 273 97 27 346 316 297 319 247 258 259 264 277 272 250 236 230 233 247 174 170 154 159 161 164 163 162 165 163 158 158 155 154 152 149 147 147 145 143 139 126 113 101
285 285 282 36 353 330 341 313 348 327 336 252 234 187 230 191 213 230 236 167 163 156 154 155 159 161 160 160 158 157 154 153 152 152 148 146 145 142 136 134 121 111 101 96
296 287 293 8 344 329 318 201 349 328 311 307 234 199 153 173 113 128 148 152 148 151 153 154 156 160 158 153 154 151 150 149 148 147 144 143 138 132 125 122 112 105 101 95
302 279 284 5 335 319 9 322 314 306 298 261 251 359 120 135 133 154 154 142 143 147 150 151 155 158 144 145 147 147 146 143 144 143 140 136 130 124 121 114 109 106 103 99
318 315 338 348 329 353 304 308 321 328 321 260 219 160 116 113 114 123 129 130 131 131 130 134 145 152 143 141 140 139 141 140 138 136 132 130 127 120 114 112 112 108 106 101
328 324 307 317 318 345 346 347 354 357 31 110 102 107 107 105 105 108 116 120 125 131 128 132 142 148 138 135 138 141 139 135 133 130 126 124 120 115 114 115 113 108 102 99
304 22 322 337 2 3 7 19 26 40 59 85 89 95 94 98 101 104 110 114 129 134 133 132 134 134 129 135 139 138 134 132 131 129 126 121 115 114 114 113 109 105 103 101
272 309 333 1 9 16 31 38 46 58 64 81 86 84 90 94 99 98 105 108 121 127 125 125 128 127 133 136 139 134 132 131 131 130 128 123 119 117 116 112 111 112 106 104
320 321 357 4 18 30 45 44 53 65 67 74 89 84 89 89 97 103 102 102 112 119 122 124 126 128 131 134 138 136 132 133 132 130 127 125 123 117 109 109 108 101 98 96
291 336 24 35 41 50 55 56 63 67 73 80 79 88 93 84 94 104 101 103 109 112 115 117 118 120 126 132 135 134 131 131 131 128 127 125 123 120 115 106 99 92 86 82
18 355 45 51 45 61 68 68 76 80 83 85 90 95 99 98 98 103 106 107 109 113 113 115 117 118 124 127 129 128 127 128 128 127 126 125 124 118 115 114 108 98 86 77
68 81 85 79 83 81 82 80 77 76 83 86 90 97 103 104 103 104 107 109 111 110 109 109 110 111 117 123 124 123 124 126 127 127 126 126 121 117 115 110 105 99 91 83
88 90 92 83 85 87 87 82 85 86 92 97 100 102 105 108 110 110 111 114 111 106 106 107 107 111 117 120 120 120 122 125 125 125 124 123 120 118 116 110 103 99 95 90
80 79 95 92 103 100 96 94 98 99 99 100 102 108 110 109 110 111 111 110 107 105 105 106 108 112 116 118 119 120 120 122 125 122 121 122 119 117 113 111 108 104 97 91
96 101 104 105 113 110 102 99 98 99 98 103 107 109 110 108 106 108 110 115 113 111 108 108 110 114 117 120 123 124 124 121 121 122 119 119 118 116 115 113 111 107 95 78
101 97 100 105 110 110 108 105 104 102 104 107 112 110 111 110 111 112 115 115 117 119 118 116 113 114 117 121 125 125 124 123 123 120 119 119 119 119 118 119 118 111 103 90
96 100 110 114 116 114 110 107 104 103 105 108 109 111 112 115 118 122 123 117 117 117 121 125 126 120 117 119 121 122 125 127 128 127 127 127 127 126 126 123 120 116 106 89
118 116 119 120 119 118 119 120 119 114 113 113 116 114 111 112 119 125 123 121 120 118 118 119 124 123 125 122 119 122 124 128 133 136 135 137 135 135 135 133 125 123 108 88
133 133 132 130 127 123 122 124 127 128 128 132 132 128 124 122 126 131 131 128 127 124 120 120 122 125 127 127 126 127 132 136 137 139 142 142 143 144 141 140 137 129 109 91
141 142 140 137 133 130 127 127 130 129 129 134 139 139 137 134 135 138 140 137 132 128 128 129 125 124 128 136 138 141 144 143 146 148 150 152 155 153 150 152 149 138 120 95
147 146 146 145 140 136 133 131 131 129 125 126 133 138 142 140 138 144 148 146 143 141 143 140 138 141 144 148 149 151 155 160 162 164 166 158 156 151 146 137 130 124 112 91
159 160 161 159 152 143 142 139 135 131 123 118 123 131 133 138 149 150 151 150 147 150 151 143 140 150 153 155 156 161 166 167 165 160 154 146 138 130 125 119 115 106 92 70
165 170 170 168 164 160 158 155 153 151 145 137 130 133 143 146 146 153 161 164 168 168 169 158 147 142 141 141 140 149 157 161 159 158 155 150 147 143 135 121 107 88 61 34
167 164 167 168 172 175 173 170 171 172 167 161 153 150 147 153 168 169 171 173 176 178 176 175 167 160 159 157 152 151 161 161 163 163 159 156 155 153 148 137 106 60 28 14
Wind_Speed_850mb
34 46 43 39 43 46 45 43 33 50 42 40 34 30 27 29 31 23 19 16 20 39 43 44 50 59 72 81 83 79 80 72 65 63 67 67 69 64 57 51 41 34 28 20
38 44 42 39 47 42 42 46 49 51 60 44 50 57 47 51 43 40 34 20 23 43 50 58 65 78 81 85 85 83 77 74 75 80 82 80 74 69 60 51 42 32 25 18
16 18 28 19 11 9 11 32 36 45 53 32 36 29 30 40 42 50 41 23 39 50 62 74 83 84 90 95 90 76 86 86 94 92 88 82 75 65 57 47 38 30 25 22
15 18 8 9 29 28 26 29 24 38 45 39 29 37 32 27 32 35 33 28 51 61 78 89 93 92 99 97 91 94 98 100 99 92 89 81 72 62 53 42 35 30 28 26
7 13 28 10 29 28 19 41 24 31 26 25 26 10 10 17 16 23 22 55 71 80 96 100 100 96 103 101 102 105 105 104 98 92 87 77 68 57 46 38 35 32 31 29
6 9 9 20 52 70 44 8 26 32 27 20 16 13 8 16 6 28 53 78 87 99 101 99 98 105 106 106 105 105 106 100 94 84 78 70 59 50 46 37 38 36 36 34
12 8 8 36 55 64 11 16 40 45 31 31 19 2 11 12 34 52 70 92 99 105 106 105 105 109 110 108 108 108 100 92 83 74 67 58 54 48 44 41 40 41 39 40
9 8 12 55 41 19 16 35 41 42 31 17 44 25 43 57 68 74 85 93 96 107 108 106 109 114 112 112 108 101 95 88 78 69 62 56 51 51 44 41 41 42 40 41
7 8 19 52 31 37 26 34 43 45 40 59 67 76 69 80 80 74 79 92 101 119 114 104 104 107 119 111 103 99 91 83 74 67 61 53 47 47 46 41 41 42 38 38
11 4 25 43 48 43 49 52 58 65 59 80 81 83 78 89 78 69 85 89 108 113 112 113 111 112 112 104 96 89 85 79 73 69 63 54 50 46 46 44 43 41 37 33
8 10 23 50 52 48 53 60 68 75 71 79 89 80 88 93 82 90 91 89 111 123 123 119 113 108 99 91 83 83 80 76 71 64 59 56 54 51 47 45 37 38 34 30
7 30 22 31 46 53 59 63 68 76 80 83 98 86 103 91 93 101 100 99 115 116 115 108 103 98 88 79 73 77 78 71 67 63 57 56 57 56 48 44 42 41 38 33
9 31 22 29 45 55 69 72 80 83 82 94 91 105 110 94 101 115 110 102 109 105 100 94 89 83 73 68 64 66 72 69 63 59 57 56 54 54 57 49 43 41 38 38
15 13 32 50 34 56 71 75 85 92 94 96 98 100 100 102 104 109 102 96 94 88 87 83 81 77 68 64 64 66 67 64 62 60 56 54 50 46 42 39 37 40 34 34
31 36 40 41 49 58 68 72 81 80 79 82 83 87 87 92 94 95 92 91 90 87 85 83 82 76 67 65 67 67 66 64 61 60 55 54 50 44 40 37 34 34 32 28
27 33 39 42 47 52 61 62 71 71 75 76 79 81 83 87 87 80 74 76 82 78 76 78 77 69 64 64 67 65 61 59 59 57 53 46 43 39 35 34 31 27 24 20
23 27 30 37 45 48 54 60 63 63 63 63 63 65 69 73 74 72 69 69 72 72 69 70 70 61 58 57 59 60 61 55 54 48 42 37 37 35 31 28 26 24 23 22
26 24 28 34 41 43 40 43 47 52 53 51 53 57 61 65 68 66 63 61 63 63 58 56 56 52 52 49 51 54 53 49 47 45 45 39 36 33 27 25 23 20 20 21
21 27 27 32 36 41 41 44 47 48 47 47 52 56 57 58 58 57 56 57 56 56 52 45 43 46 46 42 44 45 45 45 43 42 39 36 33 27 24 21 20 17 15 14
23 26 31 37 39 39 41 39 40 40 41 41 50 53 53 50 49 50 49 55 54 56 51 45 43 44 42 37 37 40 39 37 36 35 31 26 24 22 20 19 17 15 13 12
19 26 31 34 37 36 34 34 33 35 35 33 41 47 49 46 43 44 50 54 51 46 42 36 34 37 34 33 33 36 34 33 31 29 26 22 20 17 15 14 12 10 10 10
21 25 31 32 32 32 27 26 26 31 33 36 39 43 44 41 36 39 43 46 44 39 37 37 37 35 35 31 31 30 30 30 30 28 24 21 17 15 12 10 8 7 7 8
23 28 31 30 29 29 26 22 23 25 27 27 29 32 32 34 32 32 38 39 38 37 35 33 32 30 28 26 26 26 26 24 23 21 19 16 13 12 11 9 8 7 8 7
24 27 26 25 24 26 29 30 31 29 28 27 26 26 28 33 32 30 37 39 36 33 28 27 23 20 22 23 25 25 23 21 20 17 15 15 13 13 14 13 14 13 10 9
24 25 23 23 22 23 29 32 31 30 30 31 31 29 27 25 24 35 36 36 33 29 24 20 17 19 20 22 22 22 22 21 19 20 21 20 20 21 20 19 18 15 12 9
24 23 22 21 22 27 30 31 26 30 30 30 29 28 27 26 26 27 29 28 27 26 22 23 24 26 26 24 22 20 23 23 24 24 25 23 21 17 15 13 12 10 9 11
25 25 29 29 28 28 28 29 30 33 30 26 24 24 22 21 24 24 25 27 26 30 32 28 27 25 23 20 19 17 22 22 22 24 24 21 18 15 11 8 5 5 8 13
Wind_Direction_850mb
260 274 279 270 267 267 259 257 250 272 279 263 268 279 287 283 281 283 271 262 218 190 180 171 167 164 173 173 176 179 176 177 179 176 173 171 168 164 161 162 160 157 158 160
281 272 264 266 266 263 252 254 253 255 262 262 268 270 266 262 261 272 275 287 201 180 171 163 163 171 171 173 170 170 172 172 167 165 165 161 158 157 157 155 153 157 155 136
278 317 305 265 299 290 257 257 255 248 254 271 259 257 260 253 252 251 261 259 191 178 166 159 167 167 166 167 164 169 168 164 162 161 158 156 154 151 148 149 150 146 128 113
292 321 273 97 27 346 316 297 319 247 258 259 264 277 272 250 236 230 233 247 174 170 154 159 161 164 163 162 165 163 158 158 155 154 152 149 147 147 145 143 139 126 113 101
285 285 282 36 353 330 341 313 348 327 336 252 234 187 230 191 213 230 236 167 163 156 154 155 159 161 160 160 158 157 154 153 152 152 148 146 145 142 136 134 121 111 101 96
296 287 293 8 344 329 318 201 349 328 311 307 234 199 153 173 113 128 148 152 148 151 153 154 156 160 158 153 154 151 150 149 148 147 144 143 138 132 125 122 112 105 101 95
302 279 284 5 335 319 9 322 314 306 298 261 251 359 120 135 133 154 154 142 143 147 150 151 155 158 144 145 147 147 146 143 144 143 140 136 130 124 121 114 109 106 103 99
318 315 338 348 329 353 304 308 321 328 321 260 219 160 116 113 114 123 129 130 131 131 130 134 145 152 143 141 140 139 141 140 138 136 132 130 127 120 114 112 112 108 106 101
328 324 307 317 318 345 346 347 354 357 31 110 102 107 107 105 105 108 116 120 125 131 128 132 142 148 138 135 138 141 139 135 133 130 126 124 120 115 114 115 113 108 102 99
304 22 322 337 2 3 7 19 26 40 59 85 89 95 94 98 101 104 110 114 129 134 133 132 134 134 129 135 139 138 134 132 131 129 126 121 115 114 114 113 109 105 103 101
272 309 333 1 9 16 31 38 46 58 64 81 86 84 90 94 99 98 105 108 121 127 125 125 128 127 133 136 139 134 132 131 131 130 128 123 119 117 116 112 111 112 106 104
320 321 357 4 18 30 45 44 53 65 67 74 89 84 89 89 97 103 102 102 112 119 122 124 126 128 131 134 138 136 132 133 132 130 127 125 123 117 109 109 108 101 98 96
291 336 24 35 41 50 55 56 63 67 73 80 79 88 93 84 94 104 101 103 109 112 115 117 118 120 126 132 135 134 131 131 131 128 127 125 123 120 115 106 99 92 86 82
18 355 45 51 45 61 68 68 76 80 83 85 90 95 99 98 98 103 106 107 109 113 113 115 117 118 124 127 129 128 127 128 128 127 126 125 124 118 115 114 108 98 86 77
68 81 85 79 83 81 82 80 77 76 83 86 90 97 103 104 103 104 107 109 111 110 109 109 110 111 117 123 124 123 124 126 127 127 126 126 121 117 115 110 105 99 91 83
88 90 92 83 85 87 87 82 85 86 92 97 100 102 105 108 110 110 111 114 111 106 106 107 107 111 117 120 120 120 122 125 125 125 124 123 120 118 116 110 103 99 95 90
80 79 95 92 103 100 96 94 98 99 99 100 102 108 110 109 110 111 111 110 107 105 105 106 108 112 116 118 119 120 120 122 125 122 121 122 119 117 113 111 108 104 97 91
96 101 104 105 113 110 102 99 98 99 98 103 107 109 110 108 106 108 110 115 113 111 108 108 110 114 117 120 123 124 124 121 121 122 119 119 118 116 115 113 111 107 95 78
101 97 100 105 110 110 108 105 104 102 104 107 112 110 111 110 111 112 115 115 117 119 118 116 113 114 117 121 125 125 124 123 123 120 119 119 119 119 118 119 118 111 103 90
96 100 110 114 116 114 110 107 104 103 105 108 109 111 112 115 118 122 123 117 117 117 121 125 126 120 117 119 121 122 125 127 128 127 127 127 127 126 126 123 120 116 106 89
118 116 119 120 119 118 119 120 119 114 113 113 116 114 111 112 119 125 123 121 120 118 118 119 124 123 125 122 119 122 124 128 133 136 135 137 135 135 135 133 125 123 108 88
133 133 132 130 127 123 122 124 127 128 128 132 132 128 124 122 126 131 131 128 127 124 120 120 122 125 127 127 126 127 132 136 137 139 142 142 143 144 141 140 137 129 109 91
141 142 140 137 133 130 127 127 130 129 129 134 139 139 137 134 135 138 140 137 132 128 128 129 125 124 128 136 138 141 144 143 146 148 150 152 155 153 150 152 149 138 120 95
147 146 146 145 140 136 133 131 131 129 125 126 133 138 142 140 138 144 148 146 143 141 143 140 138 141 144 148 149 151 155 160 162 164 166 158 156 151 146 137 130 124 112 91
159 160 161 159 152 143 142 139 135 131 123 118 123 131 133 138 149 150 151 150 147 150 151 143 140 150 153 155 156 161 166 167 165 160 154 146 138 130 125 119 115 106 92 70
165 170 170 168 164 160 158 155 153 151 145 137 130 133 143 146 146 153 161 164 168 168 169 158 147 142 141 141 140 149 157 161 159 158 155 150 147 143 135 121 107 88 61 34
167 164 167 168 172 175 173 170 171 172 167 161 153 150 147 153 168 169 171 173 176 178 176 175 167 160 159 157 152 151 161 161 163 163 159 156 155 153 148 137 106 60 28 14